Regional Weather Roundup
Issued by NWS

Home | Current Version | Previous Version | Text Only | Print | Product List | Glossary On
Versions: 1 2 3 4 5 6 7 8 9 10 11 12 13 14 15 16 17 18 19 20 21 22 23 24 25 26 27 28 29 30 31 32 33 34 35 36 37 38 39 40 41 42 43 44 45 46 47 48 49 50
000
ASUS45 KREV 190810
RWRNV
NEVADA REGIONAL WEATHER ROUNDUP
NATIONAL WEATHER SERVICE RENO NV
100 AM PDT FRI SEP 19 2014

NOTE: "FAIR" INDICATES FEW OR NO CLOUDS BELOW 12,000 FEET WITH NO
SIGNIFICANT WEATHER AND/OR OBSTRUCTIONS TO VISIBILITY.

NVZ001-003-004-190900-
WESTERN NEVADA

CITY           SKY/WX    TMP DP  RH WIND       PRES   REMARKS
RENO           MOCLDY    65  44  46 N3        30.03R
CARSON CITY    CLOUDY    63  41  45 N5        30.03S
MINDEN         FAIR      61  43  51 N6        30.05R
SLIDE MTN        N/A     46  32  57 N7          N/A
PYRAMID LAKE     N/A     70 N/A N/A N16         N/A
FALLON         CLOUDY    65  45  48 W8        29.96F
LOVELOCK       MOCLDY    70  37  29 VRB3      29.96S
HAWTHORNE      CLEAR     66  43  42 CALM      29.99R
$$

NVZ002-CAZ072-073-190900-
NORTHERN AND CENTRAL SIERRA

CITY           SKY/WX    TMP DP  RH WIND       PRES   REMARKS
S. LAKE TAHOE  CLOUDY    50  42  74 CALM      30.11S
TRUCKEE        MOCLDY    41  37  87 CALM      30.11S FOG
SQUAW VLY 8000 NOT AVBL
SUSANVILLE     CLEAR     52  39  62 W5        30.04R
BLUE CANYON    CLOUDY    59  42  53 NE5       30.06F HAZE
MAMMOTH LAKES  CLOUDY    57  41  54 W10       30.12S
$$

NVZ030-031-036-190900-
NORTHERN NEVADA

CITY           SKY/WX    TMP DP  RH WIND       PRES   REMARKS
ELKO           PTCLDY    57  51  80 E3        30.02R
WINNEMUCCA     CLOUDY    64  37  36 E5        30.01R
WENDOVER       PTCLDY    66  52  59 SE7       29.96R
$$

NVZ035-037-190900-
CENTRAL NEVADA

CITY           SKY/WX    TMP DP  RH WIND       PRES   REMARKS
ELY            MOCLDY    56  45  66 NW3       30.07R
EUREKA           N/A     52  40  63 SW5       30.04R
$$

NVZ013-014-190900-
SOUTH CENTRAL NEVADA

CITY           SKY/WX    TMP DP  RH WIND       PRES   REMARKS
TONOPAH        CLEAR     63  34  33 CALM      29.99R
$$

NVZ017-020-022-190900-
SOUTHERN NEVADA

CITY           SKY/WX    TMP DP  RH WIND       PRES   REMARKS
LAS VEGAS      CLEAR     83  44  25 S14       29.74R
N. LAS VEGAS   CLEAR     81  42  25 S10       29.76R
NELLIS AFB     CLEAR     83  46  26 S12       29.75R
HENDERSON      CLEAR     79  44  28 SE8       29.81S
MERCURY        CLEAR     77  42  28 SW15      29.83S
$$


USA.gov is the U.S. government's official web portal to all federal, state and local government web resources and services.